Location: Croagnes
(43.9363°N, 5.3265°E)
Time: 09:35:41
(UTC+00:00)

X-37B - Visible Passes

Search period start: 30 July 2021 00:00
Search period end: 09 August 2021 00:00
Orbit: 383 x 392 km, 45.0° (Epoch: 01 July)

Date Brightness Start Highest point End Pass type
(mag) Time Alt. Az. Time Alt. Az. Time Alt. Az.
30 Jul 2.6 03:51:37 10° SSW 03:54:01 19° SSE 03:56:24 10° E visible
31 Jul 3.2 02:54:45 10° SSE 02:55:53 11° SE 02:57:01 10° ESE visible
01 Aug 1.8 03:31:15 13° SW 03:33:44 32° SSE 03:36:38 10° E visible
02 Aug 2.4 02:35:26 20° SSE 02:35:31 20° SSE 02:37:56 10° E visible
03 Aug 1.0 03:11:51 23° SW 03:13:31 51° SSE 03:16:38 10° E visible
04 Aug 2.0 02:15:59 28° SE 02:15:59 28° SE 02:18:09 10° E visible
04 Aug 0.6 03:48:32 10° W 03:51:44 82° N 03:54:57 10° ENE visible
05 Aug 0.5 02:52:22 40° WSW 02:53:21 76° SSE 02:56:34 10° ENE visible
06 Aug 2.4 01:56:29 27° E 01:56:29 27° E 01:58:09 10° E visible
06 Aug 0.8 03:28:46 12° W 03:31:39 71° N 03:34:51 10° E visible
07 Aug 0.5 02:32:54 67° W 02:33:15 82° N 02:36:27 10° ENE visible
08 Aug 3.1 01:37:05 18° E 01:37:05 18° E 01:38:05 10° ENE visible
08 Aug 0.8 03:09:22 18° W 03:11:35 70° N 03:14:47 10° E visible
